User: anonymous   Login
Location: Potomac
(46.8816°N, 113.5795°W)
Time: 14:15:57
(UTC+00:00)
Language:

YUBILEINY - Orbit

View from above orbital plane
View from above orbital plane
View from above satellite
View from above satellite

Ground track
Ground track

The orbit data is extracted from the following two-line orbital elements,

1 32953U 08025A   22177.15128031  .00000024  00000-0  10000-3 0  9997
2 32953  82.5031 178.5269 0018024 239.5912 120.3388 12.43111247639411
Epoch (UTC): 26 June 2022 03:37:50
Eccentricity: 0.0018024
inclination: 82.5031°
perigee height: 1479 km
apogee height: 1507 km
right ascension of ascending node: 178.5269°
argument of perigee: 239.5912°
revolutions per day: 12.43111247
mean anomaly at epoch: 120.3388°
orbit number at epoch: 63941

The dashed part of the orbit path shows where the satellite is in the earth's shadow,  

DLR